Vertical_Velocity
-2 -3 -4 -1 0 0 -0 -2 -4 -3 -1 1 -1 -4 -3 -0 -2 -2 -1 -2 -2 -2 3 0 -1 2 -6
-2 0 -4 -1 -2 -7 -3 0 0 -2 -0 0 -1 -0 2 -1 -1 -1 -0 2 0 -3 -2 -5 -1 -3 -1
-2 -1 -4 -4 -6 -1 -2 -8 -7 -5 -0 4 -0 1 -0 -3 -1 -3 -5 -4 -2 -1 -1 -3 -6 -3 -1
2 -1 -2 -1 -4 -7 -9 -4 -7 -7 5 4 -5 -3 -1 1 2 2 2 1 2 -1 -3 -2 -2 -3 -1
-2 -0 -1 -4 0 -3 -4 0 -4 -12 -8 -6 -7 -6 -5 0 0 0 0 -0 1 0 3 3 1 -3 1
1 -3 -3 -1 0 -1 -2 -2 -12 -11 -7 -3 -3 -5 -2 1 -2 -2 -1 -0 -0 -1 -0 -0 -3 -3 -4
0 -0 -1 -1 -2 -2 -1 1 -1 -6 -4 -11 4 -10 -3 -6 1 -3 0 1 -0 1 0 -1 2 1 -0
-0 -1 -0 0 5 7 0 3 -0 -5 2 -21 8 -8 -3 -3 -4 -3 1 1 1 1 2 4 5 1 -3
2 3 2 2 4 -0 -1 -5 -5 -10 5 -3 -3 -9 3 -4 -7 -7 -6 -6 -0 2 0 0 -1 -1 -1
2 3 4 0 1 4 3 -1 4 -15 5 1 -4 1 -20 -9 -5 -2 -0 1 -1 1 2 2 2 1 -5
-1 -2 -3 -2 -3 0 3 4 1 -5 10 13 -6 3 10 -13 -7 -6 -3 -6 -3 -3 3 4 1 5 -2
-2 -1 -4 -3 -1 3 1 1 6 3 -4 12 -4 5 5 -4 -12 2 -1 -2 1 -5 -3 0 1 1 2
-2 -1 0 -1 0 -1 4 -1 -1 4 7 7 5 1 6 -3 -6 -13 -2 -17 9 0 3 0 -2 2 -8
-3 1 0 1 1 2 -5 -4 -8 -12 7 6 2 5 -3 0 5 -14 3 -2 -2 0 6 0 -0 1 -1
-1 -1 0 -1 -1 0 2 -3 0 -6 -16 -0 6 3 5 6 -15 10 -6 -8 9 -3 -0 -8 -3 1 -1
1 0 -1 -4 -6 -4 5 3 -4 -3 -4 -2 -8 -13 -2 -2 -2 -18 6 -6 -4 0 3 -1 -16 1 -3
-1 1 0 -1 -1 -1 -2 -1 -5 1 -0 -2 -4 8 -1 -7 9 25 -16 -4 1 -2 7 5 -3 -7 6
Height
1487 1488 1485 1482 1478 1475 1471 1466 1461 1458 1453 1448 1445 1444 1442 1440 1437 1435 1433 1431 1430 1428 1427 1425 1424 1423 1422
1480 1479 1477 1475 1470 1466 1463 1459 1454 1450 1445 1440 1438 1435 1432 1430 1428 1426 1424 1422 1420 1418 1417 1415 1413 1412 1411
1473 1471 1468 1466 1460 1458 1454 1449 1445 1441 1438 1434 1430 1428 1424 1422 1420 1418 1415 1412 1409 1407 1406 1404 1403 1402 1401
1468 1464 1462 1458 1454 1450 1443 1441 1436 1434 1431 1427 1423 1420 1417 1414 1410 1407 1403 1400 1397 1395 1394 1393 1392 1390 1390
1462 1458 1454 1451 1449 1445 1438 1433 1429 1426 1420 1417 1415 1410 1407 1404 1401 1397 1393 1390 1387 1386 1384 1383 1382 1381 1380
1457 1452 1449 1447 1444 1439 1434 1429 1420 1420 1414 1408 1408 1402 1399 1395 1391 1387 1384 1380 1378 1376 1374 1372 1371 1370 1369
1451 1449 1445 1443 1439 1434 1429 1423 1418 1414 1410 1396 1399 1392 1390 1386 1382 1379 1375 1371 1368 1366 1365 1363 1362 1360 1359
1447 1443 1440 1437 1434 1429 1423 1416 1411 1409 1405 1391 1390 1383 1379 1374 1373 1370 1368 1364 1361 1358 1356 1354 1352 1350 1349
1442 1439 1436 1432 1428 1422 1417 1411 1402 1399 1396 1388 1381 1373 1367 1363 1361 1360 1358 1354 1351 1348 1345 1342 1340 1338 1336
1435 1433 1430 1427 1423 1418 1412 1406 1400 1392 1390 1384 1377 1373 1358 1354 1352 1350 1348 1346 1341 1338 1334 1331 1329 1327 1323
1429 1427 1424 1421 1417 1413 1409 1403 1397 1391 1387 1380 1372 1368 1364 1348 1340 1340 1338 1333 1330 1325 1323 1320 1318 1315 1313
1425 1422 1418 1415 1412 1407 1403 1399 1393 1385 1380 1376 1366 1362 1355 1346 1335 1330 1328 1323 1319 1314 1311 1309 1308 1306 1304
1421 1418 1414 1410 1406 1401 1397 1391 1385 1380 1374 1368 1361 1355 1350 1342 1332 1324 1318 1313 1310 1305 1302 1299 1297 1295 1293
1417 1413 1409 1404 1400 1395 1388 1382 1375 1369 1365 1360 1355 1348 1341 1335 1328 1317 1313 1306 1302 1299 1293 1288 1286 1284 1282
1413 1409 1405 1400 1394 1389 1382 1375 1368 1361 1355 1351 1347 1340 1334 1328 1319 1311 1304 1298 1293 1288 1284 1278 1275 1273 1270
1410 1406 1401 1395 1389 1383 1379 1372 1363 1356 1349 1343 1336 1328 1322 1316 1313 1302 1294 1290 1285 1280 1276 1270 1262 1261 1259
1406 1402 1397 1391 1386 1380 1374 1367 1359 1352 1345 1339 1332 1326 1317 1307 1302 1301 1292 1284 1279 1272 1269 1264 1257 1251 1251